FW0960 Weather Reports


time (UTC)temp
C
wind
direction
speed
KPH
gust
KPH
rain 1hr
cm
rain 24hr
cm
rain mn
cm
humidity
%
barometer
mb
20260505031940 16 254 0.0 1.6 0.00 0.00 0.00 80 1013.0
20260505031444 16 256 0.0 1.6 0.00 0.00 0.00 80 1012.9
20260505030942 16 257 0.0 1.6 0.00 0.00 0.00 80 1013.0
20260505030438 16 257 0.0 1.6 0.00 0.00 0.00 80 1013.1
20260505025937 16 344 0.0 1.6 0.00 0.00 0.00 80 1013.0
20260505025437 16 344 0.0 1.6 0.00 0.00 0.00 80 1013.2
20260505024935 16 344 0.0 1.6 0.00 0.00 0.00 80 1013.0
20260505024433 16 346 0.0 0.0 0.00 0.00 0.00 80 1012.9
20260505023930 16 346 0.0 3.2 0.00 0.00 0.00 80 1013.0
20260505022931 16 347 0.0 1.6 0.00 0.00 0.00 80 1013.0
20260505022433 16 347 0.0 1.6 0.00 0.00 0.00 80 1012.9
20260505021437 16 347 0.0 1.6 0.00 0.00 0.00 79 1013.1
20260505020930 16 347 0.0 1.6 0.00 0.00 0.00 79 1013.1
20260505020442 16 347 0.0 3.2 0.00 0.00 0.00 79 1013.2
20260505015433 16 346 0.0 3.2 0.00 0.00 0.00 79 1013.1
20260505014930 16 347 0.0 3.2 0.00 0.00 0.00 79 1013.0
20260505013932 16 347 0.0 3.2 0.00 0.00 0.00 78 1013.2
20260505013431 16 347 0.0 1.6 0.00 0.00 0.00 78 1013.1
20260505012933 16 348 0.0 3.2 0.00 0.00 0.00 78 1013.1
20260505012432 16 348 0.0 3.2 0.00 0.00 0.00 78 1013.1
20260505012002 17 348 0.0 1.6 0.00 0.00 0.00 77 1013.1
20260505010937 17 348 0.0 3.2 0.00 0.00 0.00 76 1013.1
20260505010432 17 348 0.0 1.6 0.00 0.00 0.00 76 1013.1
20260505005942 17 348 0.0 1.6 0.00 0.00 0.00 76 1013.1
20260505005431 17 348 0.0 1.6 0.00 0.00 0.00 76 1013.1
20260505004433 17 348 0.0 1.6 0.00 0.00 0.00 75 1013.1
20260505003934 17 348 0.0 1.6 0.00 0.00 0.00 75 1013.0
20260505002931 17 348 0.0 1.6 0.00 0.00 0.00 74 1013.0
20260505002430 17 348 0.0 1.6 0.00 0.00 0.00 74 1013.1
20260505001430 17 348 0.0 1.6 0.00 0.00 0.00 73 1013.0
20260505000939 18 348 0.0 1.6 0.00 0.00 0.00 72 1013.0
20260504235934 18 340 0.0 1.6 0.00 0.00 0.00 71 1013.0
20260504235432 18 340 0.0 3.2 0.00 0.00 0.00 71 1012.9
20260504234938 18 340 0.0 3.2 0.00 0.00 0.00 70 1012.8
20260504233934 18 340 0.0 3.2 0.00 0.00 0.00 69 1012.6
20260504232931 19 340 0.0 3.2 0.00 0.00 0.00 68 1012.6
20260504232432 19 340 0.0 3.2 0.00 0.00 0.00 67 1012.6
20260504231931 19 340 0.0 3.2 0.00 0.00 0.00 67 1012.5
20260504231432 19 340 1.6 3.2 0.00 0.00 0.00 66 1012.5
20260504230931 19 339 0.0 3.2 0.00 0.00 0.00 65 1012.5
20260504230432 20 339 0.0 3.2 0.00 0.00 0.00 65 1012.5
20260504225929 20 339 0.0 3.2 0.00 0.00 0.00 64 1012.5
20260504225437 20 338 0.0 3.2 0.00 0.00 0.00 63 1012.5
20260504224934 20 336 1.6 3.2 0.00 0.00 0.00 63 1012.5
20260504224433 20 336 0.0 4.8 0.00 0.00 0.00 62 1012.3
20260504223930 20 336 1.6 4.8 0.00 0.00 0.00 62 1012.4
20260504223435 20 336 1.6 3.2 0.00 0.00 0.00 61 1012.3
20260504222934 21 331 1.6 3.2 0.00 0.00 0.00 60 1012.3
20260504222431 21 329 1.6 3.2 0.00 0.00 0.00 57 1012.3
20260504221424 21 355 1.6 3.2 0.00 0.00 0.00 58 1012.2
20260504220917 22 351 1.6 3.2 0.00 0.00 0.00 55 1012.2
20260504220418 23 351 1.6 4.8 0.00 0.00 0.00 51 1012.2
20260504215915 23 49 1.6 6.4 0.00 0.00 0.00 44 1012.2
20260504215422 23 161 0.0 6.4 0.00 0.00 0.00 42 1012.2
20260504214914 23 173 0.0 3.2 0.00 0.00 0.00 40 1012.3
20260504213918 23 117 1.6 3.2 0.00 0.00 0.00 41 1012.2
20260504213414 23 154 1.6 6.4 0.00 0.00 0.00 42 1012.3
20260504212912 23 208 1.6 6.4 0.00 0.00 0.00 39 1012.3
20260504212415 23 141 1.6 3.2 0.00 0.00 0.00 40 1012.4
20260504211913 23 108 1.6 3.2 0.00 0.00 0.00 38 1012.3
20260504211413 23 142 1.6 3.2 0.00 0.00 0.00 38 1012.2
20260504210913 23 157 1.6 6.4 0.00 0.00 0.00 39 1012.4
20260504210410 23 152 1.6 6.4 0.00 0.00 0.00 40 1012.2
20260504205407 23 169 1.6 3.2 0.00 0.00 0.00 40 1012.3
20260504204905 23 121 1.6 6.4 0.00 0.00 0.00 41 1012.4
20260504204408 23 42 1.6 6.4 0.00 0.00 0.00 39 1012.5
20260504203902 23 167 1.6 6.4 0.00 0.00 0.00 43 1012.6
20260504202904 23 92 1.6 4.8 0.00 0.00 0.00 41 1012.4
20260504201901 23 102 0.0 6.4 0.00 0.00 0.00 41 1012.6
20260504201405 23 86 0.0 3.2 0.00 0.00 0.00 40 1012.5
20260504200906 23 88 0.0 3.2 0.00 0.00 0.00 39 1012.7
20260504195901 23 105 1.6 8.0 0.00 0.00 0.00 40 1012.6
20260504195402 23 167 1.6 8.0 0.00 0.00 0.00 41 1012.7
20260504194906 23 169 1.6 8.0 0.00 0.00 0.00 41 1012.8
20260504194408 23 107 1.6 6.4 0.00 0.00 0.00 43 1012.8
20260504193903 23 145 1.6 4.8 0.00 0.00 0.00 40 1012.7
20260504193406 23 121 1.6 4.8 0.00 0.00 0.00 40 1012.8
20260504192905 23 88 1.6 8.0 0.00 0.00 0.00 39 1012.9
20260504192403 23 82 1.6 8.0 0.00 0.00 0.00 40 1012.9
20260504191904 23 144 1.6 4.8 0.00 0.00 0.00 40 1013.0
20260504191402 23 123 1.6 6.4 0.00 0.00 0.00 40 1012.9
20260504190404 22 128 1.6 6.4 0.00 0.00 0.00 37 1013.1
20260504185902 23 140 1.6 4.8 0.00 0.00 0.00 40 1013.1
20260504185402 22 168 1.6 8.0 0.00 0.00 0.00 43 1013.3
20260504184358 22 128 1.6 8.0 0.00 0.00 0.00 39 1013.3
20260504183857 22 173 0.0 4.8 0.00 0.00 0.00 42 1013.2
20260504183358 22 153 0.0 6.4 0.00 0.00 0.00 42 1013.3
20260504182405 22 109 1.6 3.2 0.00 0.00 0.00 40 1013.5
20260504181902 22 155 1.6 3.2 0.00 0.00 0.00 44 1013.6
20260504181358 22 214 1.6 9.7 0.00 0.00 0.00 42 1013.6
20260504175855 22 129 0.0 4.8 0.00 0.00 0.00 39 1013.7
20260504175359 22 151 1.6 9.7 0.00 0.00 0.00 39 1013.9
20260504174902 21 166 1.6 9.7 0.00 0.00 0.00 42 1013.9
20260504174400 21 178 0.0 4.8 0.00 0.00 0.00 40 1014.0
20260504173900 21 115 1.6 4.8 0.00 0.00 0.00 39 1014.0
20260504173355 21 163 1.6 6.4 0.00 0.00 0.00 40 1014.2
20260504172852 21 96 1.6 8.0 0.00 0.00 0.00 43 1014.2
20260504172352 21 180 1.6 8.0 0.00 0.00 0.00 42 1014.2
20260504171859 21 169 1.6 8.0 0.00 0.00 0.00 46 1014.3
20260504170855 21 159 1.6 6.4 0.00 0.00 0.00 43 1014.5
20260504170354 21 178 1.6 6.4 0.00 0.00 0.00 42 1014.4
20260504160347 20 138 1.6 4.8 0.00 0.00 0.00 46 1014.8
20260504150834 19 355 0.0 3.2 0.00 0.00 0.00 53 1015.3
20260504141325 17 182 0.0 1.6 0.00 0.00 0.00 63 1015.6
20260504140320 17 135 0.0 3.2 0.00 0.00 0.00 62 1016.0
20260504130809 15 144 0.0 1.6 0.00 0.00 0.00 69 1016.5
20260504130307 15 155 0.0 1.6 0.00 0.00 0.00 69 1016.4
20260504120301 12 140 0.0 1.6 0.00 0.00 0.00 79 1016.9
20260504100236 11 140 0.0 0.0 0.00 0.00 0.00 82 1017.2
20260504081706 10 144 0.0 3.2 0.00 0.00 0.00 80 1017.5
20260504081206 10 140 0.0 3.2 0.00 0.00 0.00 80 1017.5
20260504080705 10 166 0.0 1.6 0.00 0.00 0.00 80 1017.5
20260504080207 10 171 0.0 1.6 0.00 0.00 0.00 80 1017.6
20260504070154 10 181 0.0 6.4 0.00 0.00 0.00 74 1017.6
20260504060147 9 165 0.0 1.6 0.00 0.00 0.00 69 1017.4
20260504050646 9 163 0.0 1.6 0.00 0.00 0.00 69 1017.5
20260504050140 8 163 0.0 1.6 0.00 0.00 0.00 68 1017.4
20260504045640 8 163 0.0 0.0 0.00 0.00 0.00 68 1017.5
20260504045136 8 163 0.0 0.0 0.00 0.00 0.00 68 1017.3
20260504044637 8 163 0.0 0.0 0.00 0.00 0.00 68 1017.2
20260504044133 8 163 0.0 0.0 0.00 0.00 0.00 68 1017.3
20260504043633 8 163 0.0 0.0 0.00 0.00 0.00 68 1017.2
20260504043131 8 163 0.0 0.0 0.00 0.00 0.00 68 1017.2
20260504042133 8 163 0.0 0.0 0.00 0.00 0.00 68 1017.0
20260504041634 8 163 0.0 0.0 0.00 0.00 0.00 68 1017.0
20260504041136 8 163 0.0 0.0 0.00 0.00 0.00 68 1016.9
20260504040632 8 163 0.0 0.0 0.00 0.00 0.00 68 1016.8
20260504040130 8 163 0.0 0.0 0.00 0.00 0.00 68 1016.8
20260504035628 8 163 0.0 0.0 0.00 0.00 0.00 69 1016.7
20260504035119 8 163 0.0 0.0 0.00 0.00 0.00 69 1016.7
20260504034621 8 163 0.0 0.0 0.00 0.00 0.00 70 1016.7
20260504034125 8 163 0.0 0.0 0.00 0.00 0.00 69 1016.7
20260504033117 8 163 0.0 0.0 0.00 0.00 0.00 68 1016.6
20260504032617 8 163 0.0 0.0 0.00 0.00 0.00 69 1016.8